Hourly Data Report for July 14, 2021

SWAN RIVER RCS
MANITOBA
Current Station Operator: ECCC - MSC

52°06'53.900" N
101°13'58.500" W
334.80 m
504K80K
71443
WEQ

Download Data

Hourly Data (July 2021)
Hourly Data Report for July 14, 2021
TIME
LST
Temp Definition
°C
Dew Point Definition
°C
Rel Hum Definition
%
Precip. Amount Definition
mm

Wind Dir Definition
10's deg

Wind Spd Definition
km/h
Visibility Definition
km
Stn Press Definition
kPa
Hmdx Definition


Wind Chill Definition


Weather Definition


00:00 14.0 13.5 96 0.0 3 4   97.89     LegendNANA
01:00 12.6 12.1 97 0.0 4 6   97.89     LegendNANA
02:00 11.2 10.9 98 0.0 21 4   97.91     LegendNANA
03:00 11.7 11.6 99 0.0 31 4   97.89     LegendNANA
04:00 9.5 9.3 99 0.0 18 5   97.90     LegendNANA
05:00 9.3 9.1 99 0.0 20 5   97.91     LegendNANA
06:00 11.2 11.2 100 0.0 28 4   97.91     LegendNANA
07:00 13.5 13.5 100 0.0 24 2   97.91     LegendNANA
08:00 16.2 13.8 86 0.0   0   97.91     LegendNANA
09:00 18.4 13.4 73 0.0 24 2   97.89     LegendNANA
10:00 20.3 12.6 61 0.0 34 4   97.86     LegendNANA
11:00 22.2 13.8 59 0.0 4 6   97.82 25   LegendNANA
12:00 23.6 11.4 46 0.0 5 5   97.78 26   LegendNANA
13:00 24.2 11.3 44 0.0 35 6   97.74 26   LegendNANA
14:00 24.6 11.2 43 0.0 36 8   97.68 26   LegendNANA
15:00 25.4 11.4 42 0.0 4 7   97.62 27   LegendNANA
16:00 25.9 11.4 40 0.0 19 6   97.57 28   LegendNANA
17:00 25.8 11.3 40 0.0 11 8   97.53 28   LegendNANA
18:00 25.7 12.9 45 0.0 11 6   97.47 28   LegendNANA
19:00 24.4 14.6 54 0.0 12 7   97.45 28   LegendNANA
20:00 23.1 14.6 59 0.0 11 9   97.43 27   LegendNANA
21:00 19.8 15.1 74 0.0 13 7   97.40     LegendNANA
22:00 18.3 13.8 75 0.0 15 6   97.40     LegendNANA
23:00 17.6 13.4 76 0.0 17 9   97.40     LegendNANA

Notes on Data Quality.

Legend

  • E = Estimated
  • M = Missing
  • NA = Not Available*
  • [empty] = Indicates an unobserved value
Date modified: